Location: *
(50.5492°N, 7.7469°E)
Time: 21:52:49
(UTC+00:00)

STARLINK-41 - Pass Details

Date: 21 October 2019
Orbit: 548 x 551 km, 53.0° (Epoch: 12 November)

Event Time Altitude Azimuth Distance (km) Brightness Sun altitude
Rises 18:47:45 0° 285° (WNW) 2,720 8.6 -23.2°
Reaches altitude 10° 18:50:00 10° 288° (WNW) 1,825 7.4 -23.5°
Enters shadow 18:53:46 66° 331° (NNW) 602 3.8 -24.1°
